| time (UTC) | temp F | wind direction | speed MPH | gust MPH | rain 1hr in | rain 24hr in | rain mn in | humidity % | barometer mb |
| 20260507192757 | 66 | 6 | 7.0 | 10.0 | 0.00 | 0.00 | 0.00 | 70 | 1016.1 |
| 20260507192254 | 66 | 18 | 3.0 | 8.0 | 0.00 | 0.00 | 0.00 | 72 | 1016.1 |
| 20260507191750 | 66 | 5 | 6.0 | 12.0 | 0.00 | 0.00 | 0.00 | 71 | 1016.4 |
| 20260507191247 | 66 | 3 | 6.0 | 9.0 | 0.00 | 0.00 | 0.00 | 72 | 1016.6 |
| 20260507190744 | 66 | 48 | 2.0 | 7.0 | 0.00 | 0.00 | 0.00 | 74 | 1016.6 |
| 20260507190243 | 65 | 48 | 4.0 | 9.0 | 0.00 | 0.00 | 0.00 | 73 | 1016.8 |
| 20260507185741 | 65 | 17 | 3.0 | 8.0 | 0.00 | 0.00 | 0.00 | 74 | 1017.0 |
| 20260507185237 | 65 | 1 | 6.0 | 7.0 | 0.00 | 0.00 | 0.00 | 74 | 1017.1 |
| 20260507184735 | 65 | 3 | 5.0 | 8.0 | 0.00 | 0.00 | 0.00 | 74 | 1017.2 |
| 20260507184233 | 65 | 45 | 6.0 | 8.0 | 0.00 | 0.00 | 0.00 | 74 | 1017.6 |
| 20260507183729 | 65 | 355 | 6.0 | 8.0 | 0.00 | 0.00 | 0.00 | 74 | 1017.3 |
| 20260507183226 | 65 | 85 | 7.0 | 7.0 | 0.00 | 0.00 | 0.00 | 74 | 1017.6 |
| 20260507182724 | 65 | 43 | 6.0 | 8.0 | 0.00 | 0.00 | 0.00 | 74 | 1017.4 |
| 20260507182218 | 66 | 337 | 8.0 | 9.0 | 0.00 | 0.00 | 0.00 | 74 | 1017.4 |
| 20260507181716 | 66 | 0 | 6.0 | 9.0 | 0.00 | 0.00 | 0.00 | 73 | 1017.3 |
| 20260507181212 | 66 | 352 | 5.0 | 10.0 | 0.00 | 0.00 | 0.00 | 73 | 1017.4 |
| 20260507180710 | 66 | 10 | 7.0 | 11.0 | 0.00 | 0.00 | 0.00 | 73 | 1017.6 |
| 20260507180206 | 66 | 121 | 6.0 | 10.0 | 0.00 | 0.00 | 0.00 | 74 | 1017.4 |
| 20260507175701 | 66 | 15 | 7.0 | 8.0 | 0.00 | 0.00 | 0.00 | 74 | 1017.4 |
| 20260507175158 | 65 | 57 | 7.0 | 10.0 | 0.00 | 0.00 | 0.00 | 75 | 1017.5 |
| 20260507174656 | 65 | 67 | 3.0 | 8.0 | 0.00 | 0.00 | 0.00 | 75 | 1017.5 |
| 20260507174154 | 65 | 30 | 5.0 | 12.0 | 0.00 | 0.00 | 0.00 | 76 | 1017.3 |
| 20260507173651 | 65 | 350 | 4.0 | 9.0 | 0.00 | 0.00 | 0.00 | 77 | 1017.4 |
| 20260507173147 | 65 | 20 | 8.0 | 10.0 | 0.00 | 0.00 | 0.00 | 76 | 1017.5 |
| 20260507172644 | 64 | 36 | 4.0 | 9.0 | 0.00 | 0.00 | 0.00 | 78 | 1017.5 |
| 20260507172141 | 63 | 7 | 7.0 | 14.0 | 0.00 | 0.00 | 0.00 | 79 | 1017.4 |
| 20260507171636 | 63 | 8 | 4.0 | 8.0 | 0.00 | 0.00 | 0.00 | 79 | 1017.6 |
| 20260507171133 | 63 | 75 | 3.0 | 7.0 | 0.00 | 0.00 | 0.00 | 81 | 1017.7 |
| 20260507170630 | 63 | 77 | 3.0 | 8.0 | 0.00 | 0.00 | 0.00 | 82 | 1017.7 |
| 20260507170127 | 62 | 17 | 7.0 | 10.0 | 0.00 | 0.00 | 0.00 | 82 | 1017.9 |
| 20260507165622 | 62 | 353 | 6.0 | 8.0 | 0.00 | 0.00 | 0.00 | 83 | 1018.3 |
| 20260507165119 | 62 | 351 | 5.0 | 9.0 | 0.00 | 0.00 | 0.00 | 83 | 1018.2 |
| 20260507164615 | 62 | 343 | 7.0 | 12.0 | 0.00 | 0.00 | 0.00 | 83 | 1017.9 |
| 20260507164112 | 62 | 5 | 4.0 | 11.0 | 0.00 | 0.00 | 0.00 | 83 | 1018.2 |
| 20260507163609 | 61 | 30 | 4.0 | 12.0 | 0.00 | 0.00 | 0.00 | 83 | 1018.2 |
| 20260507163107 | 61 | 9 | 11.0 | 13.0 | 0.00 | 0.00 | 0.00 | 83 | 1018.0 |
| 20260507162602 | 61 | 340 | 3.0 | 12.0 | 0.00 | 0.00 | 0.00 | 83 | 1018.1 |
| 20260507162059 | 61 | 356 | 8.0 | 12.0 | 0.00 | 0.00 | 0.00 | 84 | 1018.2 |
| 20260507161555 | 61 | 350 | 7.0 | 9.0 | 0.00 | 0.00 | 0.00 | 84 | 1018.0 |
| 20260507161052 | 61 | 32 | 5.0 | 14.0 | 0.00 | 0.00 | 0.00 | 84 | 1018.1 |
| 20260507160548 | 61 | 13 | 6.0 | 9.0 | 0.00 | 0.00 | 0.00 | 85 | 1017.7 |
| 20260507160045 | 61 | 350 | 5.0 | 10.0 | 0.00 | 0.00 | 0.00 | 85 | 1017.8 |
| 20260507155540 | 61 | 325 | 3.0 | 10.0 | 0.00 | 0.00 | 0.00 | 85 | 1018.1 |
| 20260507155037 | 60 | 19 | 5.0 | 10.0 | 0.00 | 0.00 | 0.00 | 85 | 1018.1 |
| 20260507154534 | 60 | 356 | 7.0 | 10.0 | 0.00 | 0.00 | 0.00 | 85 | 1018.3 |
| 20260507154026 | 60 | 28 | 8.0 | 10.0 | 0.00 | 0.00 | 0.00 | 86 | 1018.1 |
| 20260507153522 | 60 | 71 | 11.0 | 16.0 | 0.00 | 0.00 | 0.00 | 86 | 1018.4 |
| 20260507153018 | 60 | 31 | 4.0 | 10.0 | 0.00 | 0.00 | 0.00 | 87 | 1018.4 |
| 20260507152514 | 60 | 17 | 8.0 | 13.0 | 0.00 | 0.00 | 0.00 | 87 | 1018.0 |
| 20260507152011 | 60 | 66 | 5.0 | 11.0 | 0.00 | 0.00 | 0.00 | 88 | 1018.2 |
| 20260507151507 | 60 | 14 | 4.0 | 13.0 | 0.00 | 0.00 | 0.00 | 88 | 1017.7 |
| 20260507151004 | 60 | 324 | 8.0 | 13.0 | 0.00 | 0.00 | 0.00 | 88 | 1017.3 |
| 20260507150501 | 60 | 323 | 3.0 | 10.0 | 0.00 | 0.00 | 0.00 | 89 | 1017.6 |
| 20260507145957 | 59 | 17 | 6.0 | 14.0 | 0.00 | 0.00 | 0.00 | 90 | 1017.4 |
| 20260507145453 | 59 | 350 | 5.0 | 12.0 | 0.00 | 0.00 | 0.00 | 91 | 1017.6 |
| 20260507144950 | 59 | 7 | 11.0 | 11.0 | 0.00 | 0.00 | 0.00 | 91 | 1017.7 |
| 20260507144447 | 59 | 346 | 3.0 | 10.0 | 0.00 | 0.00 | 0.00 | 92 | 1017.9 |
| 20260507143944 | 59 | 309 | 5.0 | 9.0 | 0.00 | 0.00 | 0.00 | 92 | 1018.2 |
| 20260507143442 | 59 | 340 | 3.0 | 10.0 | 0.00 | 0.00 | 0.00 | 91 | 1018.1 |
| 20260507142938 | 59 | 327 | 3.0 | 7.0 | 0.00 | 0.00 | 0.00 | 92 | 1018.4 |
| 20260507142434 | 59 | 325 | 6.0 | 7.0 | 0.00 | 0.00 | 0.00 | 92 | 1018.4 |
| 20260507141931 | 59 | 2 | 4.0 | 8.0 | 0.00 | 0.00 | 0.00 | 92 | 1018.0 |
| 20260507141427 | 59 | 339 | 4.0 | 12.0 | 0.00 | 0.00 | 0.00 | 92 | 1017.8 |
| 20260507140924 | 59 | 8 | 4.0 | 12.0 | 0.00 | 0.00 | 0.00 | 92 | 1017.8 |
| 20260507140420 | 59 | 302 | 7.0 | 12.0 | 0.00 | 0.00 | 0.00 | 92 | 1018.0 |
| 20260507135918 | 59 | 34 | 9.0 | 10.0 | 0.00 | 0.00 | 0.00 | 92 | 1018.0 |
| 20260507135414 | 59 | 19 | 7.0 | 11.0 | 0.00 | 0.00 | 0.00 | 92 | 1017.9 |
| 20260507134912 | 59 | 314 | 4.0 | 10.0 | 0.00 | 0.00 | 0.00 | 91 | 1017.5 |
| 20260507134408 | 59 | 301 | 6.0 | 10.0 | 0.00 | 0.00 | 0.00 | 91 | 1017.7 |
| 20260507133904 | 59 | 322 | 5.0 | 8.0 | 0.00 | 0.00 | 0.00 | 90 | 1017.5 |
| 20260507133401 | 59 | 358 | 5.0 | 9.0 | 0.00 | 0.00 | 0.00 | 90 | 1017.7 |
| 20260507132859 | 59 | 351 | 9.0 | 9.0 | 0.00 | 0.00 | 0.00 | 90 | 1017.9 |
| 20260507132355 | 59 | 319 | 7.0 | 11.0 | 0.00 | 0.00 | 0.00 | 89 | 1017.6 |
| 20260507131852 | 59 | 343 | 5.0 | 11.0 | 0.00 | 0.00 | 0.00 | 89 | 1017.7 |
| 20260507131348 | 59 | 24 | 3.0 | 8.0 | 0.00 | 0.00 | 0.00 | 89 | 1017.8 |
| 20260507130845 | 59 | 15 | 4.0 | 9.0 | 0.00 | 0.00 | 0.00 | 89 | 1017.8 |
| 20260507130337 | 59 | 35 | 6.0 | 9.0 | 0.00 | 0.00 | 0.00 | 89 | 1017.8 |
| 20260507125836 | 59 | 8 | 3.0 | 8.0 | 0.00 | 0.00 | 0.00 | 89 | 1018.0 |
| 20260507125333 | 59 | 47 | 5.0 | 9.0 | 0.00 | 0.00 | 0.00 | 88 | 1017.8 |
| 20260507124831 | 60 | 33 | 7.0 | 11.0 | 0.00 | 0.00 | 0.00 | 88 | 1017.3 |
| 20260507124327 | 60 | 315 | 6.0 | 11.0 | 0.00 | 0.00 | 0.00 | 88 | 1016.9 |
| 20260507123826 | 60 | 2 | 7.0 | 10.0 | 0.00 | 0.00 | 0.00 | 88 | 1017.1 |
| 20260507123322 | 60 | 337 | 9.0 | 12.0 | 0.00 | 0.00 | 0.00 | 88 | 1017.6 |
| 20260507122818 | 60 | 34 | 2.0 | 8.0 | 0.00 | 0.00 | 0.00 | 88 | 1017.4 |
| 20260507122314 | 60 | 323 | 5.0 | 13.0 | 0.00 | 0.00 | 0.00 | 88 | 1017.2 |
| 20260507121810 | 60 | 4 | 5.0 | 10.0 | 0.00 | 0.00 | 0.00 | 87 | 1016.6 |
| 20260507121306 | 60 | 0 | 6.0 | 12.0 | 0.00 | 0.00 | 0.00 | 87 | 1016.9 |
| 20260507120803 | 60 | 331 | 6.0 | 11.0 | 0.00 | 0.00 | 0.00 | 87 | 1016.6 |
| 20260507120259 | 60 | 348 | 4.0 | 10.0 | 0.00 | 0.00 | 0.00 | 87 | 1016.5 |
| 20260507115755 | 60 | 6 | 5.0 | 14.0 | 0.00 | 0.00 | 0.00 | 87 | 1016.6 |
| 20260507115251 | 60 | 349 | 6.0 | 13.0 | 0.00 | 0.00 | 0.00 | 87 | 1016.8 |
| 20260507114747 | 60 | 345 | 7.0 | 13.0 | 0.00 | 0.00 | 0.00 | 87 | 1016.6 |
| 20260507114245 | 60 | 303 | 8.0 | 12.0 | 0.00 | 0.00 | 0.00 | 87 | 1016.5 |
| 20260507113742 | 60 | 353 | 5.0 | 12.0 | 0.00 | 0.00 | 0.00 | 86 | 1016.1 |
| 20260507113238 | 60 | 10 | 3.0 | 15.0 | 0.00 | 0.00 | 0.00 | 86 | 1016.0 |
| 20260507112736 | 61 | 28 | 6.0 | 11.0 | 0.00 | 0.00 | 0.00 | 85 | 1016.0 |
| 20260507112233 | 61 | 302 | 2.0 | 13.0 | 0.00 | 0.00 | 0.00 | 85 | 1016.2 |
| 20260507111731 | 61 | 13 | 5.0 | 12.0 | 0.00 | 0.00 | 0.00 | 85 | 1016.2 |
| 20260507111227 | 61 | 9 | 4.0 | 11.0 | 0.00 | 0.00 | 0.00 | 84 | 1016.1 |
| 20260507110723 | 61 | 325 | 7.0 | 17.0 | 0.00 | 0.00 | 0.00 | 84 | 1016.0 |
| 20260507110220 | 61 | 318 | 8.0 | 12.0 | 0.00 | 0.00 | 0.00 | 84 | 1015.9 |
| 20260507105717 | 61 | 33 | 11.0 | 12.0 | 0.00 | 0.00 | 0.00 | 84 | 1016.1 |
| 20260507105213 | 61 | 22 | 6.0 | 13.0 | 0.00 | 0.00 | 0.00 | 84 | 1016.0 |
| 20260507104710 | 61 | 327 | 5.0 | 14.0 | 0.00 | 0.00 | 0.00 | 83 | 1016.0 |
| 20260507104207 | 61 | 49 | 4.0 | 10.0 | 0.00 | 0.00 | 0.00 | 83 | 1015.8 |
| 20260507103703 | 61 | 0 | 9.0 | 11.0 | 0.00 | 0.00 | 0.00 | 83 | 1015.8 |
| 20260507103159 | 62 | 340 | 4.0 | 13.0 | 0.00 | 0.00 | 0.00 | 83 | 1015.7 |
| 20260507102655 | 62 | 68 | 5.0 | 8.0 | 0.00 | 0.00 | 0.00 | 83 | 1015.9 |
| 20260507102152 | 62 | 55 | 4.0 | 7.0 | 0.00 | 0.00 | 0.00 | 83 | 1015.5 |
| 20260507101648 | 62 | 2 | 5.0 | 11.0 | 0.00 | 0.00 | 0.00 | 83 | 1015.7 |
| 20260507101144 | 62 | 3 | 4.0 | 7.0 | 0.00 | 0.00 | 0.00 | 82 | 1015.8 |
| 20260507100641 | 62 | 18 | 4.0 | 6.0 | 0.00 | 0.00 | 0.00 | 82 | 1015.9 |
| 20260507100140 | 62 | 329 | 4.0 | 8.0 | 0.00 | 0.00 | 0.00 | 82 | 1015.7 |
| 20260507095637 | 62 | 21 | 5.0 | 7.0 | 0.00 | 0.00 | 0.00 | 82 | 1015.6 |
| 20260507095134 | 62 | 56 | 5.0 | 11.0 | 0.00 | 0.00 | 0.00 | 82 | 1015.5 |
| 20260507094630 | 62 | 344 | 2.0 | 5.0 | 0.00 | 0.00 | 0.00 | 82 | 1016.1 |
| 20260507094127 | 62 | 49 | 3.0 | 5.0 | 0.00 | 0.00 | 0.00 | 82 | 1015.8 |
| 20260507093624 | 62 | 28 | 5.0 | 8.0 | 0.00 | 0.00 | 0.00 | 82 | 1015.9 |
| 20260507093123 | 62 | 53 | 4.0 | 7.0 | 0.00 | 0.00 | 0.00 | 82 | 1015.9 |
| 20260507092619 | 62 | 336 | 2.0 | 5.0 | 0.00 | 0.00 | 0.00 | 81 | 1015.7 |
| 20260507092116 | 62 | 348 | 2.0 | 8.0 | 0.00 | 0.00 | 0.00 | 81 | 1015.9 |
| 20260507091613 | 62 | 310 | 4.0 | 6.0 | 0.00 | 0.00 | 0.00 | 81 | 1015.7 |
| 20260507091108 | 62 | 28 | 5.0 | 7.0 | 0.00 | 0.00 | 0.00 | 81 | 1015.5 |
| 20260507090604 | 62 | 0 | 3.0 | 9.0 | 0.00 | 0.00 | 0.00 | 81 | 1015.8 |
| 20260507085558 | 62 | 13 | 2.0 | 6.0 | 0.00 | 0.00 | 0.00 | 81 | 1015.5 |
| 20260507085055 | 62 | 333 | 3.0 | 6.0 | 0.00 | 0.00 | 0.00 | 81 | 1015.4 |
| 20260507084552 | 62 | 357 | 3.0 | 9.0 | 0.00 | 0.00 | 0.00 | 81 | 1015.6 |
| 20260507084049 | 62 | 326 | 3.0 | 5.0 | 0.00 | 0.00 | 0.00 | 81 | 1015.4 |
| 20260507083545 | 62 | 307 | 4.0 | 6.0 | 0.00 | 0.00 | 0.00 | 81 | 1015.3 |
| 20260507083042 | 62 | 27 | 3.0 | 6.0 | 0.00 | 0.00 | 0.00 | 81 | 1015.3 |
| 20260507082538 | 62 | 355 | 6.0 | 8.0 | 0.00 | 0.00 | 0.00 | 81 | 1015.2 |
| 20260507082035 | 62 | 45 | 3.0 | 6.0 | 0.00 | 0.00 | 0.00 | 81 | 1015.3 |
| 20260507081531 | 62 | 345 | 4.0 | 8.0 | 0.00 | 0.00 | 0.00 | 81 | 1015.3 |
| 20260507081028 | 62 | 2 | 4.0 | 6.0 | 0.00 | 0.00 | 0.00 | 81 | 1015.5 |
| 20260507080524 | 63 | 10 | 2.0 | 5.0 | 0.00 | 0.00 | 0.00 | 81 | 1015.6 |
| 20260507080021 | 63 | 41 | 5.0 | 5.0 | 0.00 | 0.00 | 0.00 | 81 | 1015.6 |
| 20260507075516 | 63 | 12 | 3.0 | 6.0 | 0.00 | 0.00 | 0.00 | 81 | 1015.3 |
| 20260507075013 | 63 | 3 | 3.0 | 6.0 | 0.00 | 0.00 | 0.00 | 82 | 1015.4 |
| 20260507074509 | 63 | 353 | 2.0 | 5.0 | 0.00 | 0.00 | 0.00 | 82 | 1015.6 |
| 20260507074008 | 63 | 339 | 2.0 | 5.0 | 0.00 | 0.00 | 0.00 | 82 | 1015.7 |
| 20260507073503 | 63 | 330 | 2.0 | 5.0 | 0.00 | 0.00 | 0.00 | 82 | 1015.5 |
| 20260507073000 | 63 | 103 | 1.0 | 5.0 | 0.00 | 0.00 | 0.00 | 82 | 1015.5 |
| 20260507072457 | 63 | 12 | 4.0 | 6.0 | 0.00 | 0.00 | 0.00 | 82 | 1015.7 |
| 20260507071949 | 63 | 60 | 4.0 | 5.0 | 0.00 | 0.00 | 0.00 | 83 | 1015.6 |
| 20260507071446 | 62 | 91 | 4.0 | 5.0 | 0.00 | 0.00 | 0.00 | 83 | 1015.5 |
| 20260507070943 | 63 | 357 | 5.0 | 5.0 | 0.00 | 0.00 | 0.00 | 83 | 1015.9 |
| 20260507070440 | 62 | 10 | 2.0 | 5.0 | 0.00 | 0.00 | 0.00 | 83 | 1015.7 |
| 20260507065937 | 63 | 89 | 4.0 | 5.0 | 0.00 | 0.00 | 0.00 | 83 | 1015.7 |
| 20260507065433 | 62 | 64 | 2.0 | 4.0 | 0.00 | 0.00 | 0.00 | 83 | 1015.7 |
| 20260507064931 | 62 | 33 | 2.0 | 6.0 | 0.00 | 0.00 | 0.00 | 83 | 1015.4 |
| 20260507064429 | 63 | 315 | 4.0 | 6.0 | 0.00 | 0.00 | 0.00 | 83 | 1015.4 |
| 20260507063926 | 62 | 9 | 5.0 | 5.0 | 0.00 | 0.00 | 0.00 | 83 | 1015.8 |
| 20260507063423 | 63 | 19 | 3.0 | 5.0 | 0.00 | 0.00 | 0.00 | 83 | 1015.7 |
| 20260507062920 | 63 | 358 | 3.0 | 5.0 | 0.00 | 0.00 | 0.00 | 83 | 1015.6 |
| 20260507062417 | 63 | 342 | 3.0 | 4.0 | 0.00 | 0.00 | 0.00 | 83 | 1015.4 |
| 20260507061914 | 62 | 345 | 2.0 | 6.0 | 0.00 | 0.00 | 0.00 | 83 | 1015.5 |
| 20260507061412 | 62 | 335 | 2.0 | 8.0 | 0.00 | 0.00 | 0.00 | 83 | 1015.8 |
| 20260507060911 | 62 | 28 | 3.0 | 5.0 | 0.00 | 0.00 | 0.00 | 83 | 1015.4 |
| 20260507060407 | 62 | 20 | 4.0 | 10.0 | 0.00 | 0.00 | 0.00 | 83 | 1015.1 |
| 20260507055904 | 62 | 16 | 5.0 | 6.0 | 0.00 | 0.00 | 0.00 | 83 | 1015.0 |
| 20260507055359 | 62 | 7 | 4.0 | 5.0 | 0.00 | 0.00 | 0.00 | 83 | 1015.4 |
| 20260507054856 | 62 | 341 | 5.0 | 7.0 | 0.00 | 0.00 | 0.00 | 83 | 1015.0 |
| 20260507054352 | 62 | 19 | 3.0 | 5.0 | 0.00 | 0.00 | 0.00 | 83 | 1015.1 |
| 20260507053849 | 62 | 66 | 6.0 | 8.0 | 0.00 | 0.00 | 0.00 | 84 | 1015.2 |
| 20260507053347 | 62 | 355 | 5.0 | 9.0 | 0.00 | 0.00 | 0.00 | 84 | 1015.0 |
| 20260507052846 | 62 | 343 | 5.0 | 8.0 | 0.00 | 0.00 | 0.00 | 83 | 1015.2 |
| 20260507052342 | 63 | 65 | 7.0 | 7.0 | 0.00 | 0.00 | 0.00 | 84 | 1015.3 |
| 20260507051840 | 63 | 47 | 2.0 | 8.0 | 0.00 | 0.00 | 0.00 | 84 | 1015.0 |
| 20260507051337 | 63 | 78 | 5.0 | 7.0 | 0.00 | 0.00 | 0.00 | 83 | 1015.1 |
| 20260507050834 | 63 | 15 | 2.0 | 6.0 | 0.00 | 0.00 | 0.00 | 83 | 1015.5 |
| 20260507050330 | 63 | 31 | 4.0 | 7.0 | 0.00 | 0.00 | 0.00 | 83 | 1015.1 |
| 20260507045827 | 63 | 0 | 3.0 | 6.0 | 0.00 | 0.00 | 0.00 | 83 | 1015.4 |
| 20260507045324 | 63 | 23 | 5.0 | 7.0 | 0.00 | 0.00 | 0.00 | 83 | 1015.4 |
| 20260507044821 | 63 | 320 | 5.0 | 8.0 | 0.00 | 0.00 | 0.00 | 83 | 1015.1 |
| 20260507044317 | 63 | 324 | 6.0 | 8.0 | 0.00 | 0.00 | 0.00 | 83 | 1015.6 |
| 20260507043813 | 63 | 0 | 7.0 | 11.0 | 0.00 | 0.00 | 0.00 | 83 | 1015.2 |
| 20260507043310 | 63 | 32 | 4.0 | 11.0 | 0.00 | 0.00 | 0.00 | 83 | 1015.5 |
| 20260507042806 | 63 | 306 | 6.0 | 7.0 | 0.00 | 0.00 | 0.00 | 83 | 1014.7 |
| 20260507042306 | 63 | 4 | 4.0 | 9.0 | 0.00 | 0.00 | 0.00 | 83 | 1015.0 |
| 20260507041759 | 63 | 42 | 3.0 | 7.0 | 0.00 | 0.00 | 0.00 | 83 | 1015.0 |
| 20260507041255 | 63 | 63 | 5.0 | 9.0 | 0.00 | 0.00 | 0.00 | 83 | 1014.9 |
| 20260507040753 | 63 | 341 | 5.0 | 8.0 | 0.00 | 0.00 | 0.00 | 83 | 1014.5 |
| 20260507040249 | 64 | 346 | 4.0 | 9.0 | 0.00 | 0.00 | 0.00 | 83 | 1014.7 |
| 20260507035745 | 64 | 344 | 7.0 | 8.0 | 0.00 | 0.00 | 0.00 | 83 | 1014.6 |
| 20260507035240 | 64 | 335 | 6.0 | 8.0 | 0.00 | 0.00 | 0.00 | 83 | 1014.6 |
| 20260507034738 | 64 | 57 | 4.0 | 10.0 | 0.00 | 0.00 | 0.00 | 83 | 1014.4 |
| 20260507034234 | 64 | 6 | 8.0 | 9.0 | 0.00 | 0.00 | 0.00 | 83 | 1014.7 |
| 20260507033728 | 64 | 336 | 7.0 | 11.0 | 0.00 | 0.00 | 0.00 | 83 | 1014.7 |
| 20260507033225 | 64 | 358 | 7.0 | 8.0 | 0.00 | 0.00 | 0.00 | 83 | 1014.5 |
| 20260507032722 | 64 | 29 | 4.0 | 8.0 | 0.00 | 0.00 | 0.00 | 83 | 1014.7 |
| 20260507032218 | 64 | 304 | 7.0 | 7.0 | 0.00 | 0.00 | 0.00 | 83 | 1014.5 |
| 20260507031715 | 64 | 68 | 3.0 | 11.0 | 0.00 | 0.00 | 0.00 | 83 | 1014.5 |
| 20260507031212 | 64 | 24 | 2.0 | 9.0 | 0.00 | 0.00 | 0.00 | 83 | 1014.4 |
| 20260507030708 | 64 | 0 | 3.0 | 13.0 | 0.00 | 0.00 | 0.00 | 83 | 1014.1 |
| 20260507030206 | 64 | 334 | 8.0 | 10.0 | 0.00 | 0.00 | 0.00 | 82 | 1014.2 |
| 20260507025703 | 64 | 0 | 6.0 | 9.0 | 0.00 | 0.00 | 0.00 | 82 | 1014.2 |
| 20260507025200 | 64 | 332 | 5.0 | 8.0 | 0.00 | 0.00 | 0.00 | 82 | 1014.2 |
| 20260507024658 | 64 | 327 | 5.0 | 10.0 | 0.00 | 0.00 | 0.00 | 82 | 1014.1 |
| 20260507024155 | 64 | 3 | 2.0 | 9.0 | 0.00 | 0.00 | 0.00 | 82 | 1014.2 |
| 20260507023650 | 64 | 334 | 5.0 | 10.0 | 0.00 | 0.00 | 0.00 | 82 | 1014.2 |
| 20260507023148 | 64 | 323 | 3.0 | 9.0 | 0.00 | 0.00 | 0.00 | 82 | 1014.2 |
| 20260507022645 | 64 | 26 | 3.0 | 7.0 | 0.00 | 0.00 | 0.00 | 82 | 1013.8 |
| 20260507022140 | 64 | 331 | 5.0 | 7.0 | 0.00 | 0.00 | 0.00 | 82 | 1013.8 |
| 20260507021637 | 64 | 307 | 5.0 | 10.0 | 0.00 | 0.00 | 0.00 | 82 | 1013.5 |
| 20260507021132 | 64 | 315 | 4.0 | 11.0 | 0.00 | 0.00 | 0.00 | 82 | 1013.4 |
| 20260507020631 | 64 | 8 | 8.0 | 9.0 | 0.00 | 0.00 | 0.00 | 82 | 1013.5 |
| 20260507020126 | 64 | 26 | 3.0 | 5.0 | 0.00 | 0.00 | 0.00 | 82 | 1014.1 |
| 20260507015625 | 64 | 340 | 3.0 | 10.0 | 0.00 | 0.00 | 0.00 | 81 | 1013.3 |
| 20260507015122 | 64 | 352 | 6.0 | 13.0 | 0.00 | 0.00 | 0.00 | 81 | 1013.3 |
| 20260507014619 | 64 | 354 | 6.0 | 11.0 | 0.00 | 0.00 | 0.00 | 81 | 1013.5 |
| 20260507014115 | 64 | 340 | 3.0 | 8.0 | 0.00 | 0.00 | 0.00 | 82 | 1013.4 |
| 20260507013612 | 64 | 344 | 3.0 | 5.0 | 0.00 | 0.00 | 0.00 | 81 | 1013.9 |
| 20260507013108 | 64 | 323 | 5.0 | 7.0 | 0.00 | 0.00 | 0.00 | 81 | 1013.5 |
| 20260507012606 | 64 | 317 | 5.0 | 8.0 | 0.00 | 0.00 | 0.00 | 81 | 1013.6 |
| 20260507012101 | 64 | 317 | 8.0 | 9.0 | 0.00 | 0.00 | 0.00 | 81 | 1012.6 |
| 20260507011600 | 64 | 310 | 2.0 | 13.0 | 0.00 | 0.00 | 0.00 | 81 | 1013.3 |
| 20260507011055 | 64 | 343 | 7.0 | 11.0 | 0.00 | 0.00 | 0.00 | 81 | 1012.9 |
| 20260507010550 | 65 | 20 | 6.0 | 7.0 | 0.00 | 0.00 | 0.00 | 81 | 1012.6 |
| 20260507010047 | 65 | 343 | 3.0 | 10.0 | 0.00 | 0.00 | 0.00 | 81 | 1012.9 |
| 20260507005544 | 65 | 359 | 4.0 | 10.0 | 0.00 | 0.00 | 0.00 | 81 | 1012.7 |
| 20260507005040 | 65 | 359 | 5.0 | 10.0 | 0.00 | 0.00 | 0.00 | 80 | 1012.8 |
| 20260507004538 | 65 | 319 | 8.0 | 10.0 | 0.00 | 0.00 | 0.00 | 80 | 1013.1 |
| 20260507004035 | 65 | 327 | 12.0 | 14.0 | 0.00 | 0.00 | 0.00 | 80 | 1012.7 |
| 20260507003530 | 65 | 326 | 6.0 | 9.0 | 0.00 | 0.00 | 0.00 | 80 | 1012.5 |
| 20260507003026 | 65 | 15 | 7.0 | 10.0 | 0.00 | 0.00 | 0.00 | 80 | 1012.8 |
| 20260507002522 | 65 | 338 | 6.0 | 11.0 | 0.00 | 0.00 | 0.00 | 79 | 1012.3 |
| 20260507002019 | 66 | 22 | 7.0 | 10.0 | 0.00 | 0.00 | 0.00 | 79 | 1012.4 |
| 20260507001515 | 66 | 12 | 6.0 | 11.0 | 0.00 | 0.00 | 0.00 | 79 | 1012.2 |
| 20260507001013 | 66 | 319 | 9.0 | 12.0 | 0.00 | 0.00 | 0.00 | 78 | 1012.2 |
| 20260507000509 | 66 | 330 | 10.0 | 12.0 | 0.00 | 0.00 | 0.00 | 78 | 1012.3 |
| 20260507000005 | 66 | 355 | 5.0 | 11.0 | 0.00 | 0.00 | 0.00 | 78 | 1012.2 |
| 20260506235502 | 67 | 310 | 8.0 | 12.0 | 0.00 | 0.00 | 0.00 | 77 | 1011.9 |
| 20260506234957 | 67 | 350 | 7.0 | 12.0 | 0.00 | 0.00 | 0.00 | 77 | 1011.9 |
| 20260506234455 | 67 | 327 | 6.0 | 11.0 | 0.00 | 0.00 | 0.00 | 77 | 1011.9 |
| 20260506233952 | 68 | 101 | 3.0 | 7.0 | 0.00 | 0.00 | 0.00 | 77 | 1012.1 |
| 20260506233448 | 68 | 322 | 14.0 | 15.0 | 0.00 | 0.00 | 0.00 | 75 | 1012.1 |
| 20260506232940 | 68 | 7 | 10.0 | 14.0 | 0.00 | 0.00 | 0.00 | 75 | 1012.0 |
| 20260506232436 | 68 | 38 | 7.0 | 11.0 | 0.00 | 0.00 | 0.00 | 76 | 1011.6 |
| 20260506231932 | 68 | 12 | 7.0 | 16.0 | 0.00 | 0.00 | 0.00 | 75 | 1011.6 |
| 20260506231430 | 69 | 6 | 7.0 | 11.0 | 0.00 | 0.00 | 0.00 | 75 | 1011.6 |
| 20260506230926 | 69 | 309 | 9.0 | 13.0 | 0.00 | 0.00 | 0.00 | 75 | 1011.9 |
| 20260506230423 | 70 | 343 | 6.0 | 11.0 | 0.00 | 0.00 | 0.00 | 74 | 1011.8 |
| 20260506225919 | 71 | 343 | 5.0 | 11.0 | 0.00 | 0.00 | 0.00 | 73 | 1011.7 |
| 20260506225417 | 72 | 7 | 6.0 | 8.0 | 0.00 | 0.00 | 0.00 | 72 | 1011.5 |
| 20260506224914 | 72 | 39 | 7.0 | 11.0 | 0.00 | 0.00 | 0.00 | 72 | 1011.4 |
| 20260506224411 | 71 | 339 | 10.0 | 12.0 | 0.00 | 0.00 | 0.00 | 73 | 1011.3 |
| 20260506223907 | 72 | 312 | 9.0 | 13.0 | 0.00 | 0.00 | 0.00 | 72 | 1011.3 |
| 20260506223403 | 71 | 311 | 9.0 | 14.0 | 0.00 | 0.00 | 0.00 | 73 | 1011.2 |
| 20260506222900 | 72 | 28 | 6.0 | 14.0 | 0.00 | 0.00 | 0.00 | 73 | 1011.2 |
| 20260506222356 | 73 | 311 | 8.0 | 13.0 | 0.00 | 0.00 | 0.00 | 71 | 1011.0 |
| 20260506221854 | 74 | 333 | 7.0 | 15.0 | 0.00 | 0.00 | 0.00 | 71 | 1011.0 |
| 20260506221351 | 74 | 343 | 8.0 | 10.0 | 0.00 | 0.00 | 0.00 | 71 | 1011.0 |
| 20260506220848 | 74 | 326 | 4.0 | 15.0 | 0.00 | 0.00 | 0.00 | 72 | 1011.1 |
| 20260506220343 | 75 | 315 | 9.0 | 11.0 | 0.00 | 0.00 | 0.00 | 71 | 1011.1 |
| 20260506215841 | 75 | 2 | 8.0 | 19.0 | 0.00 | 0.00 | 0.00 | 71 | 1011.0 |
| 20260506215336 | 77 | 328 | 6.0 | 12.0 | 0.00 | 0.00 | 0.00 | 70 | 1010.7 |
| 20260506214833 | 77 | 19 | 6.0 | 12.0 | 0.00 | 0.00 | 0.00 | 70 | 1010.9 |
| 20260506214329 | 78 | 306 | 10.0 | 11.0 | 0.00 | 0.00 | 0.00 | 69 | 1010.8 |
| 20260506213828 | 78 | 51 | 3.0 | 10.0 | 0.00 | 0.00 | 0.00 | 69 | 1010.5 |
| 20260506213325 | 78 | 309 | 6.0 | 12.0 | 0.00 | 0.00 | 0.00 | 70 | 1010.5 |
| 20260506212822 | 78 | 12 | 3.0 | 13.0 | 0.00 | 0.00 | 0.00 | 70 | 1010.5 |
| 20260506212317 | 79 | 345 | 6.0 | 8.0 | 0.00 | 0.00 | 0.00 | 70 | 1010.7 |
| 20260506211813 | 79 | 335 | 6.0 | 13.0 | 0.00 | 0.00 | 0.00 | 70 | 1010.7 |
| 20260506211309 | 79 | 316 | 8.0 | 14.0 | 0.00 | 0.00 | 0.00 | 71 | 1010.6 |
| 20260506210807 | 79 | 17 | 5.0 | 11.0 | 0.00 | 0.00 | 0.00 | 72 | 1010.6 |
| 20260506210303 | 79 | 46 | 7.0 | 13.0 | 0.00 | 0.00 | 0.00 | 71 | 1010.6 |
| 20260506205800 | 79 | 31 | 4.0 | 9.0 | 0.00 | 0.00 | 0.00 | 71 | 1010.9 |
| 20260506205256 | 80 | 16 | 5.0 | 13.0 | 0.00 | 0.00 | 0.00 | 70 | 1010.7 |
| 20260506204753 | 80 | 27 | 4.0 | 8.0 | 0.00 | 0.00 | 0.00 | 72 | 1010.6 |
| 20260506204251 | 80 | 358 | 3.0 | 11.0 | 0.00 | 0.00 | 0.00 | 71 | 1010.6 |
| 20260506203748 | 79 | 308 | 8.0 | 13.0 | 0.00 | 0.00 | 0.00 | 73 | 1010.7 |
| 20260506203245 | 80 | 70 | 5.0 | 12.0 | 0.00 | 0.00 | 0.00 | 73 | 1011.0 |
| 20260506202742 | 81 | 3 | 4.0 | 7.0 | 0.00 | 0.00 | 0.00 | 74 | 1010.9 |
| 20260506202239 | 81 | 20 | 2.0 | 5.0 | 0.00 | 0.00 | 0.00 | 74 | 1011.1 |
| 20260506201736 | 81 | 318 | 3.0 | 8.0 | 0.00 | 0.00 | 0.00 | 73 | 1011.0 |
| 20260506201232 | 82 | 15 | 2.0 | 7.0 | 0.00 | 0.00 | 0.00 | 74 | 1010.9 |
| 20260506200729 | 81 | 313 | 4.0 | 12.0 | 0.00 | 0.00 | 0.00 | 73 | 1010.7 |
| 20260506200226 | 81 | 357 | 4.0 | 7.0 | 0.00 | 0.00 | 0.00 | 73 | 1010.8 |
| 20260506195722 | 80 | 108 | 3.0 | 9.0 | 0.00 | 0.00 | 0.00 | 75 | 1010.9 |
| 20260506195219 | 81 | 351 | 3.0 | 5.0 | 0.00 | 0.00 | 0.00 | 74 | 1010.7 |
| 20260506194716 | 81 | 26 | 2.0 | 8.0 | 0.00 | 0.00 | 0.00 | 74 | 1010.8 |
| 20260506194212 | 81 | 63 | 5.0 | 6.0 | 0.00 | 0.00 | 0.00 | 75 | 1010.9 |
| 20260506193711 | 80 | 110 | 3.0 | 6.0 | 0.00 | 0.00 | 0.00 | 76 | 1011.0 |
| 20260506193207 | 81 | 89 | 4.0 | 6.0 | 0.00 | 0.00 | 0.00 | 75 | 1011.0 |